Location: Ajisawe
(8.4333°N, 4.3833°E)
Time: 13:55:45
(UTC+00:00)

Courier 1B Rocket - Pass Details

Date: 25 April 2021
Orbit: 920 x 1202 km, 28.2° (Epoch: 07 May)

Event Time Altitude Azimuth Distance (km) Brightness Sun altitude
Rises 00:15:51 0° 297° (WNW) 3,908 - -66.7°
Reaches altitude 10° 00:18:33 10° 297° (WNW) 2,988 - -66.4°
Maximum altitude 00:26:01 83° 210° (SSW) 1,177 - -65.6°
Drops below altitude 10° 00:33:51 10° 122° (ESE) 3,123 - -64.6°
Sets 00:36:44 0° 121° (ESE) 4,093 - -64.2°
